TimeHST,TemperatureF,Dew PointF,Humidity,Sea Level PressureIn,VisibilityMPH,Wind Direction,Wind SpeedMPH,Gust SpeedMPH,PrecipitationIn,Events,Conditions,WindDirDegrees,DateUTC
12:56 AM,64.9,63.0,93,29.94,10.0,Calm,Calm,-,N/A,,Clear,0,2012-10-06 10:56:00
1:56 AM,64.4,62.6,94,29.97,10.0,Calm,Calm,-,N/A,,Clear,0,2012-10-06 11:56:00
2:56 AM,63.9,61.9,93,29.91,10.0,Calm,Calm,-,N/A,,Clear,0,2012-10-06 12:56:00
3:56 AM,64.9,63.0,93,29.90,10.0,Calm,Calm,-,N/A,,Clear,0,2012-10-06 13:56:00
4:56 AM,63.9,61.9,93,29.91,10.0,Calm,Calm,-,N/A,,Clear,0,2012-10-06 14:56:00
5:56 AM,63.0,61.9,96,29.92,10.0,Calm,Calm,-,N/A,,Clear,0,2012-10-06 15:56:00
6:56 AM,65.8,61.9,87,29.93,10.0,Calm,Calm,-,N/A,,Clear,0,2012-10-06 16:56:00
7:56 AM,72.9,63.9,73,29.95,10.0,Calm,Calm,-,N/A,,Clear,0,2012-10-06 17:56:00
8:56 AM,81.0,63.0,54,29.94,10.0,Calm,Calm,-,N/A,,Clear,0,2012-10-06 18:56:00
9:56 AM,81.9,63.9,54,29.94,10.0,Variable,3.5,-,N/A,,Partly Cloudy,0,2012-10-06 19:56:00
10:56 AM,82.9,63.9,52,29.94,10.0,South,9.2,-,N/A,,Partly Cloudy,190,2012-10-06 20:56:00
11:56 AM,81.0,65.8,60,29.92,10.0,South,11.5,-,N/A,,Clear,180,2012-10-06 21:56:00
12:56 PM,81.9,65.8,58,29.90,10.0,South,8.1,-,N/A,,Clear,170,2012-10-06 22:56:00
1:32 PM,82.4,66.2,58,29.95,10.0,SSW,10.4,-,N/A,,Mostly Cloudy,200,2012-10-06 23:32:00
1:49 PM,80.6,64.4,58,29.94,10.0,South,9.2,-,N/A,,Scattered Clouds,190,2012-10-06 23:49:00
1:56 PM,79.0,64.9,62,29.88,10.0,SSW,9.2,-,N/A,,Partly Cloudy,210,2012-10-06 23:56:00
2:26 PM,80.6,64.4,58,29.93,10.0,Variable,4.6,-,N/A,,Mostly Cloudy,0,2012-10-07 00:26:00
2:56 PM,81.9,63.0,53,29.87,10.0,WSW,8.1,-,N/A,,Partly Cloudy,250,2012-10-07 00:56:00
3:56 PM,77.9,65.8,66,29.87,10.0,WSW,8.1,-,N/A,,Clear,250,2012-10-07 01:56:00
4:56 PM,75.9,64.9,69,29.88,10.0,Calm,Calm,-,N/A,,Scattered Clouds,0,2012-10-07 02:56:00
5:56 PM,72.9,64.9,76,29.90,10.0,Calm,Calm,-,N/A,,Clear,0,2012-10-07 03:56:00
7:56 PM,70.9,65.8,84,29.92,10.0,Calm,Calm,-,N/A,,Clear,0,2012-10-07 05:56:00
8:45 PM,71.6,66.2,83,29.99,10.0,Calm,Calm,-,N/A,,Mostly Cloudy,0,2012-10-07 06:45:00
8:56 PM,70.0,64.9,84,29.93,4.0,Calm,Calm,-,N/A,,Haze,0,2012-10-07 06:56:00
9:20 PM,69.8,66.2,88,30.00,10.0,Calm,Calm,-,N/A,,Overcast,0,2012-10-07 07:20:00
9:56 PM,70.0,65.8,87,29.93,10.0,Calm,Calm,-,N/A,,Overcast,0,2012-10-07 07:56:00
10:56 PM,69.8,66.2,88,29.99,10.0,Calm,Calm,-,N/A,,Mostly Cloudy,0,2012-10-07 08:56:00
11:56 PM,66.9,63.9,90,29.92,10.0,Calm,Calm,-,N/A,,Clear,0,2012-10-07 09:56:00